Location: Aulagny
(45.1643°N, 4.3096°E)
Time: 09:19:45
(UTC+00:00)

USA 238 DEB - Pass Details

Date: 21 October 2019
Orbit: 1028 x 1184 km, 63.4° (Epoch: 11 November)

Event Time Altitude Azimuth Distance (km) Brightness Sun altitude
Rises 17:07:25 0° 184° (S) 3,766 6.8 -4.1°
Reaches altitude 10° 17:10:15 10° 175° (S) 2,827 6.0 -4.6°
Maximum altitude 17:16:05 33° 114° (ESE) 1,673 4.3 -5.6°
Drops below altitude 10° 17:22:04 10° 53° (NE) 2,911 5.5 -6.7°
Sets 17:25:01 0° 44° (NE) 3,894 6.2 -7.2°
